Location: Altenst�hlen
(53.5567°N, 8.9425°E)
Time: 20:58:10
(UTC+00:00)

COSMO-SKYMED 1 - Pass Details

Date: 23 October 2019
Orbit: 621 x 623 km, 97.9° (Epoch: 18 November)

Event Time Altitude Azimuth Distance (km) Brightness Sun altitude
Rises 17:23:47 0° 17° (NNE) 2,918 5.8 -11.5°
Reaches altitude 10° 17:26:02 10° 22° (NNE) 2,006 4.9 -11.8°
Maximum altitude 17:30:20 57° 101° (E) 742 2.6 -12.4°
Drops below altitude 10° 17:34:36 10° 180° (S) 1,989 5.2 -13.1°
Sets 17:36:48 0° 185° (S) 2,891 6.1 -13.4°
